STARLINK-36154

Last updated on Fri Dec 19 2025 00:02:08 GMT+0000 (Coordinated Universal Time)

1 66939U 25286Q 25352.58336806 -.01351490 00000+0 -72015-2 0 9993 2 66939 53.1557 21.0105 0001138 65.0266 71.0210 15.82634585 2930
UTC large
Height (km)
Speed (km/s)
/
Latitude / Longitude
Inclination (degrees)
Orbital Period (minutes)
Azimuth
Elevation
Range (km)
Doppler Factor

Next 0 passes for location: London (51.5072 / 0.1276)

Sorry there are no passes over London.